YO8KGT-13 Weather Reports


Display with metric or nautical units.
time (UTC)temp
F
wind
direction
speed
MPH
gust
MPH
rain 1hr
in
rain 24hr
in
rain mn
in
humidity
%
barometer
mb
20260507194930 62 90 0.0 2.0 0.00 0.00 0.00 56 943.0
20260507193429 62 90 0.0 0.0 0.00 0.00 0.00 55 943.0
20260507192429 62 90 0.0 0.0 0.00 0.00 0.00 54 943.0
20260507191430 63 90 0.0 0.0 0.00 0.00 0.00 54 943.0
20260507190428 64 90 0.0 0.0 0.00 0.00 0.00 53 943.0
20260507185433 64 90 0.0 0.0 0.00 0.00 0.00 53 943.0
20260507183929 65 90 0.0 0.0 0.00 0.00 0.00 51 943.0
20260507182928 65 90 0.0 0.0 0.00 0.00 0.00 51 943.0
20260507182427 66 90 0.0 0.0 0.00 0.00 0.00 50 943.0
20260507181941 66 90 0.0 0.0 0.00 0.00 0.00 50 943.0
20260507180933 66 90 0.0 0.0 0.00 0.00 0.00 49 943.0
20260507180428 67 90 0.0 0.0 0.00 0.00 0.00 49 942.0
20260507175946 67 90 0.0 0.0 0.00 0.00 0.00 49 943.0
20260507175516 67 90 0.0 0.0 0.00 0.00 0.00 48 943.0
20260507174927 67 90 0.0 0.0 0.00 0.00 0.00 48 943.0
20260507174428 68 90 0.0 0.0 0.00 0.00 0.00 48 943.0
20260507172429 68 90 2.0 2.0 0.00 0.00 0.00 47 943.0
20260507171434 68 90 0.0 0.0 0.00 0.00 0.00 46 943.0
20260507171002 68 90 0.0 0.0 0.00 0.00 0.00 46 943.0
20260507170431 69 90 0.0 0.0 0.00 0.00 0.00 45 943.0
20260507165934 69 90 0.0 0.0 0.00 0.00 0.00 45 943.0
20260507165441 69 90 0.0 0.0 0.00 0.00 0.00 45 942.0
20260507164928 69 90 0.0 0.0 0.00 0.00 0.00 44 942.0
20260507163447 71 90 0.0 1.0 0.00 0.00 0.00 43 942.0
20260507162453 72 90 0.0 4.0 0.00 0.00 0.00 42 942.0
20260507161429 73 90 0.0 2.0 0.00 0.00 0.00 41 942.0
20260507160427 74 90 0.0 1.0 0.00 0.00 0.00 41 942.0
20260507155427 76 68 1.0 3.0 0.00 0.00 0.00 39 942.0
20260507153431 77 315 0.0 4.0 0.00 0.00 0.00 38 942.0
20260507152947 77 292 4.0 4.0 0.00 0.00 0.00 38 942.0
20260507150929 79 68 1.0 4.0 0.00 0.00 0.00 37 942.0
20260507145429 80 112 3.0 3.0 0.00 0.00 0.00 36 942.0
20260507144929 80 112 0.0 4.0 0.00 0.00 0.00 36 942.0
20260507143929 81 248 2.0 4.0 0.00 0.00 0.00 35 942.0
20260507143428 81 135 0.0 4.0 0.00 0.00 0.00 35 942.0
20260507142932 82 292 1.0 4.0 0.00 0.00 0.00 34 942.0
20260507142437 82 112 3.0 4.0 0.00 0.00 0.00 34 942.0
20260507141427 83 90 0.0 4.0 0.00 0.00 0.00 34 942.0
20260507140947 83 90 3.0 4.0 0.00 0.00 0.00 34 942.0
20260507135929 84 270 2.0 5.0 0.00 0.00 0.00 34 942.0
20260507135427 84 292 3.0 5.0 0.00 0.00 0.00 34 942.0
20260507134929 84 135 5.0 5.0 0.00 0.00 0.00 34 942.0
20260507133931 85 315 1.0 3.0 0.00 0.00 0.00 34 942.0
20260507133427 85 112 0.0 2.0 0.00 0.00 0.00 34 942.0
20260507132928 85 68 0.0 3.0 0.00 0.00 0.00 34 942.0
20260507132434 85 68 2.0 3.0 0.00 0.00 0.00 34 942.0
20260507131429 85 112 2.0 6.0 0.00 0.00 0.00 34 942.0
20260507130928 85 112 5.0 7.0 0.00 0.00 0.00 34 942.0
20260507130441 85 90 0.0 7.0 0.00 0.00 0.00 34 942.0
20260507125942 85 68 6.0 7.0 0.00 0.00 0.00 34 942.0
20260507125428 85 225 7.0 7.0 0.00 0.00 0.00 34 942.0
20260507124927 86 0 3.0 4.0 0.00 0.00 0.00 33 942.0
20260507123427 87 315 0.0 1.0 0.00 0.00 0.00 33 942.0
20260507121930 88 112 0.0 2.0 0.00 0.00 0.00 33 942.0
20260507121428 89 248 2.0 2.0 0.00 0.00 0.00 33 943.0
20260507120428 89 315 0.0 3.0 0.00 0.00 0.00 33 942.0
20260507114927 88 45 1.0 2.0 0.00 0.00 0.00 34 943.0
20260507114433 88 270 0.0 2.0 0.00 0.00 0.00 35 943.0
20260507113941 87 270 0.0 1.0 0.00 0.00 0.00 35 943.0
20260507113427 86 0 0.0 3.0 0.00 0.00 0.00 37 943.0
20260507111949 84 22 0.0 3.0 0.00 0.00 0.00 38 943.0
20260507110427 83 68 0.0 2.0 0.00 0.00 0.00 39 943.0
20260507105431 86 338 2.0 4.0 0.00 0.00 0.00 39 943.0
20260507104927 85 315 2.0 4.0 0.00 0.00 0.00 39 943.0
20260507103932 86 0 0.0 0.0 0.00 0.00 0.00 38 943.0
20260507102928 86 0 0.0 2.0 0.00 0.00 0.00 38 943.0
20260507102428 86 315 0.0 2.0 0.00 0.00 0.00 39 943.0
20260507101928 85 0 2.0 6.0 0.00 0.00 0.00 39 943.0
20260507100928 85 90 6.0 6.0 0.00 0.00 0.00 40 944.0
20260507100427 84 68 2.0 2.0 0.00 0.00 0.00 40 944.0
20260507095927 83 45 0.0 2.0 0.00 0.00 0.00 40 944.0
20260507095447 83 45 0.0 2.0 0.00 0.00 0.00 41 944.0
20260507094928 82 22 0.0 2.0 0.00 0.00 0.00 40 944.0
20260507093927 82 68 2.0 2.0 0.00 0.00 0.00 40 944.0
20260507092428 81 68 2.0 2.0 0.00 0.00 0.00 41 944.0
20260507090940 82 315 0.0 0.0 0.00 0.00 0.00 41 944.0
20260507090426 82 315 0.0 1.0 0.00 0.00 0.00 41 944.0
20260507085928 82 22 0.0 1.0 0.00 0.00 0.00 42 944.0
20260507084944 81 0 0.0 2.0 0.00 0.00 0.00 42 944.0
20260507083927 81 0 0.0 0.0 0.00 0.00 0.00 42 944.0
20260507082426 80 0 2.0 2.0 0.00 0.00 0.00 43 944.0
20260507081433 80 0 0.0 0.0 0.00 0.00 0.00 43 944.0
20260507080939 80 0 0.0 0.0 0.00 0.00 0.00 43 944.0
20260507080432 80 338 0.0 0.0 0.00 0.00 0.00 43 944.0
20260507075928 79 315 0.0 0.0 0.00 0.00 0.00 43 944.0
20260507075427 79 315 0.0 2.0 0.00 0.00 0.00 44 944.0
20260507074939 79 315 0.0 2.0 0.00 0.00 0.00 44 944.0
20260507073931 78 338 0.0 2.0 0.00 0.00 0.00 45 944.0
20260507073427 78 338 0.0 0.0 0.00 0.00 0.00 46 944.0
20260507072948 78 338 0.0 0.0 0.00 0.00 0.00 47 944.0
20260507072427 77 315 0.0 0.0 0.00 0.00 0.00 47 944.0
20260507071427 75 315 0.0 0.0 0.00 0.00 0.00 48 944.0
20260507070929 75 270 0.0 0.0 0.00 0.00 0.00 49 944.0
20260507065957 74 270 0.0 4.0 0.00 0.00 0.00 51 944.0
20260507065427 73 248 4.0 4.0 0.00 0.00 0.00 51 944.0
20260507064928 72 248 3.0 3.0 0.00 0.00 0.00 52 944.0
20260507063928 71 248 0.0 2.0 0.00 0.00 0.00 53 944.0
20260507062443 70 248 0.0 1.0 0.00 0.00 0.00 56 944.0
20260507061931 69 248 0.0 0.0 0.00 0.00 0.00 56 944.0
20260507061448 68 248 0.0 2.0 0.00 0.00 0.00 57 944.0
20260507060927 67 248 0.0 2.0 0.00 0.00 0.00 57 944.0
20260507060427 67 248 0.0 2.0 0.00 0.00 0.00 58 944.0
20260507055428 65 248 0.0 2.0 0.00 0.00 0.00 59 944.0
20260507054928 64 248 0.0 2.0 0.00 0.00 0.00 60 944.0
20260507054427 64 248 0.0 2.0 0.00 0.00 0.00 61 944.0
20260507053934 63 248 0.0 2.0 0.00 0.00 0.00 61 944.0
20260507052936 62 248 2.0 3.0 0.00 0.00 0.00 62 945.0
20260507051427 61 248 0.0 0.0 0.00 0.00 0.00 64 945.0
20260507050431 59 225 0.0 2.0 0.00 0.00 0.00 65 944.0
20260507045426 59 225 0.0 1.0 0.00 0.00 0.00 66 945.0
20260507044927 58 225 0.0 1.0 0.00 0.00 0.00 67 944.0
20260507044427 58 225 0.0 0.0 0.00 0.00 0.00 67 945.0
20260507043429 57 225 0.0 2.0 0.00 0.00 0.00 67 944.0
20260507042927 57 225 0.0 2.0 0.00 0.00 0.00 68 944.0
20260507042427 56 225 0.0 0.0 0.00 0.00 0.00 68 944.0
20260507041931 56 225 0.0 0.0 0.00 0.00 0.00 69 944.0
20260507041435 56 225 0.0 0.0 0.00 0.00 0.00 69 944.0
20260507040926 55 225 0.0 0.0 0.00 0.00 0.00 69 944.0
20260507040429 54 225 0.0 0.0 0.00 0.00 0.00 69 944.0
20260507035943 54 225 0.0 0.0 0.00 0.00 0.00 69 944.0
20260507034927 53 225 0.0 0.0 0.00 0.00 0.00 70 944.0
20260507033928 53 225 0.0 0.0 0.00 0.00 0.00 70 944.0
20260507033428 52 225 0.0 0.0 0.00 0.00 0.00 70 944.0
20260507032928 52 225 0.0 0.0 0.00 0.00 0.00 70 944.0
20260507032428 52 225 0.0 1.0 0.00 0.00 0.00 70 944.0
20260507025932 51 225 0.0 1.0 0.00 0.00 0.00 70 944.0
20260507024429 51 225 0.0 0.0 0.00 0.00 0.00 69 944.0
20260507023926 51 225 0.0 0.0 0.00 0.00 0.00 69 944.0
20260507022432 52 225 0.0 0.0 0.00 0.00 0.00 69 944.0
20260507021928 52 225 0.0 0.0 0.00 0.00 0.00 68 944.0
20260507020930 52 225 0.0 0.0 0.00 0.00 0.00 68 944.0
20260507020429 52 225 0.0 1.0 0.00 0.00 0.00 67 944.0
20260507014939 53 225 0.0 3.0 0.00 0.00 0.00 67 944.0
20260507014431 53 225 0.0 3.0 0.00 0.00 0.00 67 944.0
20260507013927 53 225 1.0 3.0 0.00 0.00 0.00 67 944.0
20260507013427 53 225 2.0 3.0 0.00 0.00 0.00 66 944.0
20260507012945 53 225 1.0 3.0 0.00 0.00 0.00 66 944.0
20260507012427 53 225 3.0 4.0 0.00 0.00 0.00 66 943.0
20260507011927 54 225 2.0 5.0 0.00 0.00 0.00 66 944.0
20260507011427 54 225 3.0 5.0 0.00 0.00 0.00 65 943.0
20260507005927 54 202 4.0 6.0 0.00 0.00 0.00 65 943.0
20260507005428 54 248 4.0 6.0 0.00 0.00 0.00 64 943.0
20260507004434 54 248 4.0 4.0 0.00 0.00 0.00 65 943.0
20260507002926 54 248 2.0 2.0 0.00 0.00 0.00 64 943.0
20260507002445 54 248 0.0 1.0 0.00 0.00 0.00 63 943.0
20260507001927 55 248 0.0 0.0 0.00 0.00 0.00 63 943.0
20260507000927 55 248 0.0 0.0 0.00 0.00 0.00 62 944.0
20260507000427 55 248 0.0 0.0 0.00 0.00 0.00 62 943.0
20260506235430 55 248 0.0 2.0 0.00 0.00 0.00 62 943.0
20260506234927 55 248 0.0 2.0 0.00 0.00 0.00 61 943.0
20260506234428 56 248 2.0 2.0 0.00 0.00 0.00 61 943.0
20260506231942 56 248 2.0 2.0 0.00 0.00 0.00 60 943.0
20260506225943 57 248 0.0 0.0 0.00 0.00 0.00 59 943.0
20260506225427 57 248 0.0 2.0 0.00 0.00 0.00 59 943.0
20260506224426 57 248 0.0 0.0 0.00 0.00 0.00 58 943.0
20260506223426 57 248 0.0 0.0 0.00 0.00 0.00 58 943.0
20260506222926 57 248 0.0 2.0 0.00 0.00 0.00 57 943.0
20260506222430 57 248 0.0 2.0 0.00 0.00 0.00 57 943.0
20260506221927 58 248 0.0 0.0 0.00 0.00 0.00 56 943.0
20260506220930 58 248 0.0 0.0 0.00 0.00 0.00 56 943.0
20260506215936 58 248 0.0 2.0 0.00 0.00 0.00 56 943.0
20260506214925 59 248 2.0 2.0 0.00 0.00 0.00 55 943.0
20260506214427 59 248 0.0 0.0 0.00 0.00 0.00 54 943.0
20260506212931 60 248 0.0 2.0 0.00 0.00 0.00 54 943.0
20260506211926 60 248 1.0 2.0 0.00 0.00 0.00 53 942.0
20260506211431 60 248 2.0 2.0 0.00 0.00 0.00 53 942.0
20260506210928 60 248 0.0 0.0 0.00 0.00 0.00 52 942.0
20260506210426 60 248 0.0 0.0 0.00 0.00 0.00 52 942.0
20260506205433 61 248 0.0 0.0 0.00 0.00 0.00 52 942.0
20260506203438 61 248 0.0 1.0 0.00 0.00 0.00 50 942.0
20260506202927 61 248 0.0 1.0 0.00 0.00 0.00 49 942.0
20260506202427 62 248 1.0 1.0 0.00 0.00 0.00 49 942.0